ChST,Max TemperatureF,Mean TemperatureF,Min TemperatureF,Max Dew PointF,MeanDew PointF,Min DewpointF,Max Humidity, Mean Humidity, Min Humidity, Max Sea Level PressureIn, Mean Sea Level PressureIn, Min Sea Level PressureIn, Max VisibilityMiles, Mean VisibilityMiles, Min VisibilityMiles, Max Wind SpeedMPH, Mean Wind SpeedMPH, Max Gust SpeedMPH,PrecipitationIn, CloudCover, Events, WindDirDegrees
2012-11-1,80,76,73,68,66,63,78,67,61,30.01,29.94,29.89,6,6,6,14,9,,0.00,3,,252
2012-11-2,82,78,75,66,63,61,69,60,51,30.04,30.01,29.98,6,6,6,13,8,,0.00,2,,44
2012-11-3,80,78,75,66,64,63,69,62,57,30.06,30.02,29.98,6,6,6,14,10,,0.00,2,,74
2012-11-4,80,78,75,66,63,61,69,61,54,30.06,30.02,29.98,6,6,6,18,15,,0.00,5,,82
2012-11-5,80,78,75,70,68,64,78,71,65,30.04,29.99,29.92,6,6,5,24,20,37,0.00,6,Rain,97
2012-11-6,80,76,71,77,73,68,94,90,83,29.92,29.89,29.83,6,5,1,18,11,,0.00,5,Rain-Thunderstorm,127
2012-11-7,80,76,73,73,70,66,94,80,65,29.89,29.84,29.80,6,6,6,14,10,,0.00,4,Rain,340
2012-11-8,78,76,73,66,61,59,73,61,51,29.98,29.94,29.89,6,6,6,12,9,,0.00,2,,38
2012-11-9,78,74,71,61,60,59,65,58,54,30.04,30.00,29.95,6,6,6,10,7,,0.00,1,,82
2012-11-10,78,74,71,63,59,57,73,57,47,30.04,30.00,29.95,6,6,6,13,8,,0.00,2,,44
2012-11-11,78,74,71,64,63,59,69,65,61,30.04,30.01,29.98,6,6,6,14,11,,0.00,2,,95
2012-11-12,80,76,73,68,66,64,73,68,61,30.04,29.97,29.92,6,6,6,12,7,,0.00,2,,196
2012-11-13,78,76,73,68,67,64,78,72,65,29.98,29.93,29.89,6,6,6,10,6,,0.00,1,,242
2012-11-14,78,76,73,72,68,63,88,78,65,30.01,29.95,29.92,6,6,3,12,7,,0.00,5,Rain,318
2012-11-15,78,76,73,63,59,55,69,56,47,30.04,30.00,29.95,6,6,6,15,12,,0.00,3,,323
2012-11-16,75,72,68,55,52,46,57,49,41,30.12,30.09,30.04,6,6,6,21,17,32,0.00,4,,20
2012-11-17,77,72,68,61,57,48,61,55,49,30.12,30.06,29.98,6,6,6,22,17,33,0.00,6,,130
2012-11-18,78,76,73,70,66,61,83,71,61,29.98,29.95,29.89,6,6,6,18,12,,0.00,5,Rain,255
2012-11-19,78,74,71,70,69,68,88,80,69,29.98,29.92,29.86,6,6,2,12,8,,0.00,5,Rain,125
2012-11-20,77,73,69,68,64,59,94,72,57,29.98,29.93,29.89,6,6,3,14,9,,0.00,5,Rain,47
2012-11-21,78,74,69,61,57,54,73,56,47,30.01,29.98,29.95,6,6,6,12,7,,0.00,2,,15
2012-11-22,77,73,69,59,57,55,64,57,50,30.04,30.00,29.95,6,6,6,13,9,,0.00,1,,79
2012-11-23,77,73,69,64,60,57,69,61,54,30.01,29.95,29.86,6,6,6,14,10,,0.00,1,,153
2012-11-24,78,76,73,72,70,66,89,81,73,29.92,29.87,29.83,6,6,3,23,18,34,0.00,5,Rain,265
2012-11-25,77,74,69,66,60,55,78,64,53,30.04,29.97,29.92,6,6,6,16,14,25,0.00,3,,21
2012-11-26,75,72,69,68,65,59,88,75,64,30.04,29.96,29.89,6,6,6,17,9,,0.00,5,Rain,90
2012-11-27,77,74,71,68,65,63,83,72,61,29.95,29.92,29.89,6,6,6,16,9,28,0.00,3,,328
2012-11-28,75,72,69,66,62,61,83,72,61,30.04,30.00,29.95,6,6,5,17,14,,0.00,5,Rain,59
2012-11-29,73,70,68,61,58,57,73,63,57,30.04,30.01,29.95,6,6,6,12,10,,0.00,3,,54
2012-11-30,78,74,71,73,69,61,94,82,69,30.01,29.92,29.86,6,6,2,15,9,,0.00,6,Rain,109